Location: Red Bud (historical)
(37.7759°N, 88.4053°W)
Time: 23:36:07
(UTC+00:00)

NOSS 3-3 (C) - Pass Details

Date: 29 October 2020
Orbit: 825 x 1387 km, 63.4° (Epoch: 22 November)

Event Time Altitude Azimuth Distance (km) Brightness Sun altitude
Rises 23:22:11 0° 194° (SSW) 3,359 7.2 -5.5°
Reaches altitude 10° 23:24:36 10° 189° (S) 2,454 6.4 -6.0°
Maximum altitude 23:30:00 50° 115° (ESE) 1,127 4.1 -7.0°
Drops below altitude 10° 23:35:58 10° 42° (NE) 2,712 5.9 -8.2°
Enters shadow 23:38:38 - 38° (NE) 3,694 6.6 -8.7°
